{"data":{"norad_id":64833,"intl_designator":"2025-151T","name":"KUIPER-00087","alt_names":[],"object_type":"PAYLOAD","status":"ACTIVE","operator":null,"country":"US","launch_date":"2025-07-16","launch_site_code":"AFETR","launch_vehicle":null,"mission":null,"orbit_class":"UNKNOWN","rcs_meters":null,"size_class":null,"mass_kg":null,"dimensions":null,"purposes":[],"wikipedia_slug":null,"has_3d_model":false,"image_url":null,"decayed_at":null,"tle_current":{"epoch":"2026-05-25T02:58:44.666976Z","epoch_age_seconds":60363,"freshness":"FRESH","line1":"1 64833U 25151T   26145.12412809  .00002287  00000+0  32887-3 0  9992","line2":"2 64833  51.8986 302.5849 0000611 105.4008 254.7022 14.79936121 46892","mean_motion":14.79936121,"eccentricity":6.11e-5,"inclination_deg":51.8986,"raan_deg":302.5849,"arg_perigee_deg":105.4008,"mean_anomaly_deg":254.7022,"bstar":0.00032887,"rev_number":4689,"period_min":97.301496974544,"perigee_km":629.09760877302,"apogee_km":629.95394516437,"semimajor_km":7007.6627769687,"source":"CELESTRAK","updated_at":"2026-05-25T13:38:04.826601Z"}}}